Weather History for KIGX - January, 2013

Change the Weather History Date:

Monday, January 7, 2013

  Actual Average Record
Temperature  
Mean Temperature 42 °F -  
Max Temperature 52 °F 48 °F 71 °F (1950)
Min Temperature 33 °F 29 °F 8 °F (2014)
Degree Days  
Heating Degree Days 22    
Moisture  
Dew Point 29 °F    
Average Humidity 65    
Maximum Humidity 85    
Minimum Humidity 39    
Precipitation  
Precipitation 0.00 in - - ()
Sea Level Pressure  
Sea Level Pressure 30.36 in    
Wind  
Wind Speed 3 mph (NNW)    
Max Wind Speed 8 mph    
Max Gust Speed 17 mph    
Visibility 10 miles    
Events      
Averages and records for this station are not official NWS values.
T = Trace of Precipitation, MM = Missing Value Source: NWS Daily Summary

Daily Weather History Graph

Daily Weather History Graph

Search for Another Location

Airport or City:

Trip Planner

Search our weather history database for the weather conditions in past years. The results will help you decide how hot, cold, wet, or windy it might be!

Date:

Astronomy

Jan. 07, 2013 Rise Set
Actual Time 7:27 AM EST 5:18 PM EST
Civil Twilight 6:58 AM EST 5:46 PM EST
Nautical Twilight 6:27 AM EST 6:18 PM EST
Astronomical Twilight 5:56 AM EST 6:49 PM EST
Moon 2:51 AM EST (1/7) 1:26 PM EST (1/7)
Length of Visible Light 10h 47m
Length of Day
9h 51m
Waning Crescent, 23% of the Moon is Illuminated
Jan 7
Waning Crescent
Jan 11
New
Jan 18
First Quarter
Jan 26
Full
Feb 3
Last Quarter

Hourly Weather History & Observations

Time (EST) Temp. Windchill Dew Point Humidity Pressure Visibility Wind Dir Wind Speed Gust Speed Precip Events Conditions
12:56 AM 39.0 °F - 32.0 °F 76% 30.19 in 10.0 mi Calm Calm - N/A   Scattered Clouds
1:56 AM 36.0 °F 33.3 °F 30.0 °F 79% 30.21 in 10.0 mi WNW 3.5 mph - N/A   Clear
2:56 AM 34.0 °F 29.8 °F 30.0 °F 85% 30.22 in 10.0 mi WNW 4.6 mph - N/A   Clear
3:56 AM 34.0 °F 28.8 °F 28.0 °F 79% 30.23 in 10.0 mi NW 5.8 mph - N/A   Clear
4:56 AM 36.0 °F 32.1 °F 27.0 °F 70% 30.25 in 10.0 mi WNW 4.6 mph - N/A   Clear
5:56 AM 36.0 °F 31.1 °F 27.0 °F 70% 30.27 in 10.0 mi NW 5.8 mph - N/A   Clear
6:56 AM 37.0 °F 31.6 °F 27.0 °F 67% 30.32 in 10.0 mi WNW 6.9 mph - N/A   Clear
7:56 AM 37.9 °F 32.7 °F 27.0 °F 65% 30.36 in 10.0 mi NW 6.9 mph - N/A   Clear
8:56 AM 42.1 °F 37.7 °F 27.0 °F 55% 30.39 in 10.0 mi NNW 6.9 mph - N/A   Clear
10:56 AM 48.0 °F - 28.0 °F 46% 30.43 in 10.0 mi North 8.1 mph 17.3 mph N/A   Clear
11:56 AM 48.9 °F - 28.0 °F 44% 30.40 in 10.0 mi NE 5.8 mph - N/A   Clear
12:56 PM 50.0 °F - 28.0 °F 43% 30.39 in 10.0 mi Variable 5.8 mph - N/A   Clear
1:56 PM 52.0 °F - 28.0 °F 40% 30.38 in 10.0 mi SE 4.6 mph - N/A   Clear
2:56 PM 51.1 °F - 28.0 °F 41% 30.39 in 10.0 mi ENE 5.8 mph - N/A   Clear
3:56 PM 51.1 °F - 27.0 °F 39% 30.40 in 10.0 mi Calm Calm - N/A   Clear
4:56 PM 46.0 °F - 28.9 °F 51% 30.41 in 10.0 mi Calm Calm - N/A   Clear
5:56 PM 41.0 °F - 32.0 °F 70% 30.42 in 10.0 mi Calm Calm - N/A   Clear
7:56 PM 37.0 °F - 30.0 °F 76% 30.44 in 10.0 mi Calm Calm - N/A   Clear
8:56 PM 35.1 °F - 30.0 °F 82% 30.44 in 10.0 mi Calm Calm - N/A   Clear
9:56 PM 35.1 °F - 28.9 °F 78% 30.44 in 10.0 mi Calm Calm - N/A   Clear
10:56 PM 33.1 °F - 28.9 °F 85% 30.43 in 10.0 mi Calm Calm - N/A   Clear
11:56 PM 33.1 °F - 28.9 °F 85% 30.42 in 10.0 mi Calm Calm - N/A   Clear